timestamp,wind_dir_avg,wind_spd_avg,wind_spd_max_dir,wind_spd_gust,battery_voltage,lat,long
2021-07-12 00:04:01+00:00,208.0,6.34,209.0,7.45,13.29,47.59359,-54.27349
2021-07-12 00:14:01+00:00,207.0,5.36,211.0,6.49,12.73,47.59359,-54.27349
2021-07-12 00:24:01+00:00,214.0,4.91,219.0,5.76,12.73,47.59359,-54.27349
2021-07-12 00:34:01+00:00,209.0,5.42,210.0,6.05,12.73,47.59359,-54.27349
2021-07-12 00:44:01+00:00,213.0,5.26,206.0,6.28,12.73,47.59359,-54.27349
2021-07-12 00:54:01+00:00,219.0,5.21,225.0,6.05,12.73,47.59359,-54.27349
2021-07-12 01:04:01+00:00,227.0,5.44,223.0,6.02,12.73,47.59359,-54.27349
2021-07-12 01:14:01+00:00,224.0,5.17,226.0,5.77,12.65,47.59359,-54.27349
2021-07-12 01:24:01+00:00,226.0,4.88,228.0,5.26,12.65,47.59359,-54.27349
2021-07-12 01:34:01+00:00,223.0,4.33,221.0,4.7,12.65,47.59359,-54.27349
2021-07-12 01:44:01+00:00,216.0,3.95,217.0,4.35,12.65,47.59359,-54.27349
2021-07-12 01:54:01+00:00,208.0,3.06,209.0,3.44,12.65,47.59359,-54.27349
2021-07-12 02:04:01+00:00,201.0,2.52,195.0,2.97,12.65,47.59359,-54.27349
2021-07-12 02:14:01+00:00,206.0,2.78,207.0,3.22,12.65,47.59359,-54.27349
2021-07-12 02:24:01+00:00,195.0,3.37,196.0,3.81,12.65,47.59359,-54.27349
2021-07-12 02:34:01+00:00,196.0,4.08,194.0,5.39,12.65,47.59359,-54.27349
2021-07-12 02:44:01+00:00,214.0,3.29,210.0,3.56,12.65,47.59359,-54.27349
2021-07-12 02:54:01+00:00,211.0,3.36,209.0,3.72,12.65,47.59359,-54.27349
2021-07-12 03:04:01+00:00,195.0,3.21,197.0,3.48,12.65,47.59359,-54.27349
2021-07-12 03:14:01+00:00,193.0,2.49,193.0,2.8,12.57,47.59359,-54.27349
2021-07-12 03:24:01+00:00,201.0,2.39,206.0,2.64,12.57,47.59359,-54.27349
2021-07-12 03:34:01+00:00,211.0,2.03,200.0,2.4,12.57,47.59359,-54.27349
2021-07-12 03:44:01+00:00,196.0,1.93,197.0,2.12,12.57,47.59359,-54.27349
2021-07-12 03:54:01+00:00,241.0,1.61,241.0,1.8,12.57,47.59359,-54.27349
2021-07-12 04:04:01+00:00,229.0,1.77,230.0,1.96,12.57,47.59359,-54.27349
2021-07-12 04:14:01+00:00,229.0,2.4,230.0,2.59,12.57,47.59359,-54.27349
2021-07-12 04:24:01+00:00,233.0,1.68,234.0,1.87,12.57,47.59359,-54.27349
2021-07-12 04:34:01+00:00,221.0,2.88,227.0,3.4,12.57,47.59359,-54.27349
2021-07-12 04:44:01+00:00,196.0,2.32,199.0,3.16,12.57,47.59359,-54.27349
2021-07-12 04:54:01+00:00,217.0,4.23,217.0,5.14,12.57,47.59359,-54.27349
2021-07-12 05:04:01+00:00,226.0,5.51,228.0,6.6,12.57,47.59359,-54.27349
2021-07-12 05:14:01+00:00,229.0,4.84,229.0,5.99,12.57,47.59359,-54.27349
2021-07-12 05:24:01+00:00,224.0,4.75,214.0,5.46,12.57,47.59359,-54.27349
2021-07-12 05:34:01+00:00,226.0,5.2,231.0,5.85,12.57,47.59359,-54.27349
2021-07-12 05:44:01+00:00,201.0,4.51,209.0,5.19,12.57,47.59359,-54.27349
2021-07-12 05:54:01+00:00,198.0,4.65,201.0,5.22,12.57,47.59359,-54.27349
2021-07-12 06:04:01+00:00,214.0,4.61,217.0,5.19,12.57,47.59359,-54.27349
2021-07-12 06:14:01+00:00,219.0,5.0,221.0,5.24,12.57,47.59359,-54.27349
2021-07-12 06:24:01+00:00,209.0,4.47,216.0,5.08,12.57,47.59359,-54.27349
2021-07-12 06:34:01+00:00,203.0,4.27,212.0,4.87,12.57,47.59359,-54.27349
2021-07-12 06:44:01+00:00,221.0,3.71,221.0,4.17,12.57,47.59359,-54.27349
2021-07-12 06:54:01+00:00,231.0,5.29,237.0,6.64,12.57,47.59359,-54.27349
2021-07-12 07:04:01+00:00,232.0,3.99,241.0,5.05,12.57,47.59359,-54.27349
2021-07-12 07:14:00+00:00,225.0,3.97,225.0,4.51,12.49,47.59359,-54.27349
2021-07-12 07:24:00+00:00,212.0,3.88,213.0,4.94,12.49,47.59359,-54.27349
2021-07-12 07:34:00+00:00,220.0,3.73,214.0,4.79,12.49,47.59359,-54.27349
2021-07-12 07:44:00+00:00,218.0,4.6,212.0,5.82,12.49,47.59359,-54.27349
2021-07-12 07:54:00+00:00,226.0,4.8,211.0,6.54,12.49,47.59359,-54.27349
2021-07-12 08:04:00+00:00,235.0,4.0,233.0,4.66,12.49,47.59359,-54.27349
2021-07-12 08:14:01+00:00,228.0,3.42,227.0,3.75,12.49,47.59359,-54.27349
2021-07-12 08:24:01+00:00,221.0,4.07,221.0,4.48,12.49,47.59359,-54.27349
2021-07-12 08:34:01+00:00,230.0,4.19,225.0,4.5,12.49,47.59359,-54.27349
2021-07-12 08:44:01+00:00,220.0,5.1,222.0,5.63,12.49,47.59359,-54.27349
2021-07-12 08:54:01+00:00,230.0,5.23,221.0,6.47,12.49,47.59359,-54.27349
2021-07-12 09:04:01+00:00,228.0,5.61,221.0,6.53,12.49,47.59359,-54.27349
2021-07-12 09:14:00+00:00,218.0,5.53,213.0,6.12,12.49,47.59359,-54.27349
2021-07-12 09:24:00+00:00,219.0,5.78,221.0,6.41,12.49,47.59359,-54.27349
2021-07-12 09:34:00+00:00,227.0,4.21,228.0,4.83,12.49,47.59359,-54.27349
2021-07-12 09:44:00+00:00,223.0,4.74,221.0,5.22,12.49,47.59359,-54.27349
2021-07-12 09:54:00+00:00,226.0,4.55,228.0,4.99,12.49,47.59359,-54.27349
2021-07-12 10:04:00+00:00,209.0,4.64,215.0,5.09,12.49,47.59359,-54.27349
2021-07-12 10:14:01+00:00,221.0,3.55,222.0,4.04,12.65,47.59359,-54.27349
2021-07-12 10:24:01+00:00,233.0,2.97,233.0,3.38,12.65,47.59359,-54.27349
2021-07-12 10:34:01+00:00,209.0,4.18,216.0,4.55,12.65,47.59359,-54.27349
2021-07-12 10:44:01+00:00,193.0,3.31,189.0,3.87,12.65,47.59359,-54.27349
2021-07-12 10:54:01+00:00,189.0,5.08,205.0,5.78,12.65,47.59359,-54.27349
2021-07-12 11:04:01+00:00,218.0,5.27,221.0,5.78,12.65,47.59359,-54.27349
2021-07-12 11:14:01+00:00,211.0,7.15,210.0,7.63,13.37,47.59359,-54.27349
2021-07-12 11:24:01+00:00,210.0,8.03,211.0,8.6,13.37,47.59359,-54.27349
2021-07-12 11:34:01+00:00,209.0,6.24,210.0,7.22,13.37,47.59359,-54.27349
2021-07-12 11:44:01+00:00,213.0,6.56,205.0,7.53,13.37,47.59359,-54.27349
2021-07-12 11:54:01+00:00,217.0,4.75,221.0,5.43,13.37,47.59359,-54.27349
2021-07-12 12:04:01+00:00,212.0,6.57,213.0,7.25,13.37,47.59359,-54.27349
2021-07-12 12:14:01+00:00,214.0,6.57,212.0,7.48,13.68,47.59359,-54.27349
2021-07-12 12:24:01+00:00,214.0,8.28,213.0,8.93,13.68,47.59359,-54.27349
2021-07-12 12:34:01+00:00,219.0,6.37,218.0,6.9,13.68,47.59359,-54.27349
2021-07-12 12:44:01+00:00,219.0,6.65,212.0,8.56,13.68,47.59359,-54.27349
2021-07-12 12:54:01+00:00,206.0,5.85,210.0,6.49,13.68,47.59359,-54.27349
2021-07-12 13:04:01+00:00,210.0,5.43,214.0,6.31,13.68,47.59359,-54.27349
2021-07-12 13:14:00+00:00,176.0,4.99,197.0,5.78,14.08,47.59359,-54.27349
2021-07-12 13:24:00+00:00,163.0,6.41,160.0,7.11,14.08,47.59359,-54.27349
2021-07-12 13:34:00+00:00,182.0,7.12,191.0,8.23,14.08,47.59359,-54.27349
2021-07-12 13:44:00+00:00,188.0,7.16,202.0,8.58,14.08,47.59359,-54.27349
2021-07-12 13:54:00+00:00,193.0,7.62,202.0,8.72,14.08,47.59359,-54.27349
2021-07-12 14:04:00+00:00,164.0,7.54,163.0,8.35,14.08,47.59359,-54.27349
2021-07-12 14:14:01+00:00,200.0,7.95,202.0,9.03,14.24,47.59359,-54.27349
2021-07-12 14:24:01+00:00,197.0,7.86,204.0,9.02,14.24,47.59359,-54.27349
2021-07-12 14:34:01+00:00,190.0,8.02,203.0,9.09,14.24,47.59359,-54.27349
2021-07-12 14:44:01+00:00,194.0,7.23,203.0,8.26,14.24,47.59359,-54.27349
2021-07-12 14:54:01+00:00,196.0,6.56,201.0,8.96,14.24,47.59359,-54.27349
2021-07-12 15:04:01+00:00,202.0,8.02,206.0,9.21,14.24,47.59359,-54.27349
2021-07-12 15:14:00+00:00,201.0,8.11,207.0,9.23,14.08,47.59359,-54.27349
2021-07-12 15:24:00+00:00,211.0,8.62,211.0,9.72,14.08,47.59359,-54.27349
2021-07-12 15:34:00+00:00,212.0,8.9,210.0,10.11,14.08,47.59359,-54.27349
2021-07-12 15:44:00+00:00,205.0,7.8,205.0,8.64,14.08,47.59359,-54.27349
2021-07-12 15:54:00+00:00,212.0,8.47,211.0,9.34,14.08,47.59359,-54.27349
2021-07-12 16:04:00+00:00,214.0,7.64,216.0,8.53,14.08,47.59359,-54.27349
2021-07-12 16:14:01+00:00,207.0,8.46,206.0,9.34,14.08,47.59359,-54.27349
2021-07-12 16:24:01+00:00,166.0,7.23,162.0,8.03,14.08,47.59359,-54.27349
2021-07-12 16:34:01+00:00,190.0,7.06,203.0,8.57,14.08,47.59359,-54.27349
2021-07-12 16:44:01+00:00,209.0,9.41,212.0,10.27,14.08,47.59359,-54.27349
2021-07-12 16:54:01+00:00,212.0,10.92,212.0,11.96,14.08,47.59359,-54.27349
2021-07-12 17:04:01+00:00,206.0,9.95,207.0,10.89,14.08,47.59359,-54.27349
2021-07-12 17:14:01+00:00,211.0,10.21,213.0,11.94,14.24,47.59359,-54.27349
2021-07-12 17:24:01+00:00,211.0,10.72,210.0,12.05,14.24,47.59359,-54.27349
2021-07-12 17:34:01+00:00,215.0,9.83,215.0,11.81,14.24,47.59359,-54.27349
2021-07-12 17:44:01+00:00,212.0,11.55,210.0,13.14,14.24,47.59359,-54.27349
2021-07-12 17:54:01+00:00,215.0,11.1,216.0,13.11,14.24,47.59359,-54.27349
2021-07-12 18:04:01+00:00,216.0,11.25,213.0,12.47,14.24,47.59359,-54.27349
2021-07-12 18:14:01+00:00,211.0,12.62,210.0,13.48,13.92,47.59359,-54.27349
2021-07-12 18:24:01+00:00,208.0,11.94,208.0,13.37,13.92,47.59359,-54.27349
2021-07-12 18:34:01+00:00,204.0,10.41,205.0,12.28,13.92,47.59359,-54.27349
2021-07-12 18:44:01+00:00,208.0,11.34,210.0,12.95,13.92,47.59359,-54.27349
2021-07-12 18:54:01+00:00,208.0,9.14,211.0,10.2,13.92,47.59359,-54.27349
2021-07-12 19:04:01+00:00,209.0,10.13,205.0,11.61,13.92,47.59359,-54.27349
2021-07-12 19:14:01+00:00,212.0,9.69,212.0,11.35,13.76,47.59359,-54.27349
2021-07-12 19:24:01+00:00,223.0,8.14,231.0,10.04,13.76,47.59359,-54.27349
2021-07-12 19:34:01+00:00,214.0,8.3,216.0,9.16,13.76,47.59359,-54.27349
2021-07-12 19:44:01+00:00,214.0,8.06,214.0,8.6,13.76,47.59359,-54.27349
2021-07-12 19:54:01+00:00,209.0,8.81,211.0,9.48,13.76,47.59359,-54.27349
2021-07-12 20:04:01+00:00,211.0,7.17,204.0,8.85,13.76,47.59359,-54.27349
2021-07-12 20:14:01+00:00,219.0,6.46,219.0,7.22,13.84,47.59359,-54.27349
2021-07-12 20:24:01+00:00,219.0,5.6,216.0,6.03,13.84,47.59359,-54.27349
2021-07-12 20:34:01+00:00,211.0,6.08,213.0,6.4,13.84,47.59359,-54.27349
2021-07-12 20:44:01+00:00,216.0,4.78,213.0,5.64,13.84,47.59359,-54.27349
2021-07-12 20:54:01+00:00,217.0,5.9,227.0,8.21,13.84,47.59359,-54.27349
2021-07-12 21:04:01+00:00,228.0,3.95,228.0,4.65,13.84,47.59359,-54.27349
2021-07-12 21:14:01+00:00,214.0,3.97,224.0,4.73,13.92,47.59359,-54.27349
2021-07-12 21:24:01+00:00,245.0,2.19,261.0,2.79,13.92,47.59359,-54.27349
2021-07-12 21:34:01+00:00,313.0,12.04,312.0,14.59,13.92,47.59359,-54.27349
2021-07-12 21:44:01+00:00,313.0,9.09,313.0,10.8,13.92,47.59359,-54.27349
2021-07-12 21:54:01+00:00,334.0,7.76,340.0,9.05,13.92,47.59359,-54.27349
2021-07-12 22:04:01+00:00,345.0,9.4,347.0,11.39,13.92,47.59359,-54.27349
2021-07-12 22:14:01+00:00,332.0,10.83,331.0,14.1,13.6,47.59359,-54.27349
2021-07-12 22:24:01+00:00,342.0,11.66,347.0,14.0,13.6,47.59359,-54.27349
2021-07-12 22:34:01+00:00,338.0,10.74,343.0,13.66,13.6,47.59359,-54.27349
2021-07-12 22:44:01+00:00,344.0,11.65,345.0,13.34,13.6,47.59359,-54.27349
2021-07-12 22:54:01+00:00,338.0,14.74,344.0,17.19,13.6,47.59359,-54.27349
2021-07-12 23:04:01+00:00,345.0,11.94,347.0,13.94,13.6,47.59359,-54.27349
2021-07-12 23:14:01+00:00,341.0,13.12,348.0,14.77,13.29,47.59359,-54.27349
2021-07-12 23:24:01+00:00,342.0,13.74,350.0,16.1,13.29,47.59359,-54.27349
2021-07-12 23:34:01+00:00,342.0,14.52,337.0,17.42,13.29,47.59359,-54.27349
2021-07-12 23:44:01+00:00,347.0,13.56,344.0,15.72,13.29,47.59359,-54.27349
2021-07-12 23:54:01+00:00,343.0,13.75,338.0,17.61,13.29,47.59359,-54.27349
